[[[{"header":{"parameterUnit":"kt","parameterCategory":2,"dx":1,"dy":1,"la1":30.253999710083008,"la2":30.299108505249023,"lo1":-89.0895004272461,"lo2":-89.04439544677734,"nx":28,"ny":28,"refTime":"2022-10-11T21:00:00:Z","depth":"0","parameterNumber":2,"parameterNumberName":"U-component_of_CURRENTS"},"data":[0.9786,0.972,0.9731,0.9471,0.9452,0.9164,0.9069,0.8924,0.8923,0.8628,0.8461,0.86,0.889,0.8985,0.8635,0.8414,0.7799,0.7547,0.7645,0.8457,0.8579,0.8697,0.8445,0.7524,0.7522,0.5845,0.5831,0.5821,0.9931,0.9993,1.0,1.002,0.9894,1.0051,1.0038,0.9864,0.9831,0.9958,1.0059,0.9986,1.0046,1.014,1.0109,0.9857,0.9493,0.9517,0.8813,0.8693,1.0078,0.9856,0.922,0.922,0.9221,0.9221,0.9222,0.9222,1.023,1.0234,1.0359,1.0347,1.0402,1.0385,1.0289,1.0428,1.0495,1.0478,1.0877,1.0914,1.1173,1.1666,1.1692,1.1276,1.1481,1.0961,1.0903,1.066,1.0214,1.1768,1.1617,1.1624,1.163,1.1635,1.164,0,1.0486,1.0573,1.0621,1.0694,1.0725,1.0747,1.0824,1.0844,1.1069,1.1174,1.1333,1.1528,1.1935,1.2017,1.2366,1.2424,1.1889,1.2355,1.1973,1.0898,1.0448,1.0174,1.1834,1.1718,1.1725,1.1731,1.1736,1.1739,1.0766,1.0787,1.0957,1.0967,1.1013,1.1081,1.1116,1.1341,1.1379,1.16,1.1592,1.187,1.2061,1.247,1.2668,1.2924,1.2514,1.2519,1.2407,1.197,1.1845,1.1535,1.1298,1.1823,1.1812,1.1804,1.1796,0,1.091,1.1045,1.1083,1.1255,1.1295,1.1312,1.1449,1.1483,1.1677,1.1719,1.1773,1.2075,1.2301,1.2567,1.2797,1.2894,1.2675,1.305,1.2489,1.2419,1.2047,1.1939,1.1443,1.1147,1.3101,1.31,1.31,0,1.112,1.1134,1.1308,1.1324,1.1369,1.1533,1.1582,1.1716,1.1864,1.1897,1.2149,1.2206,1.2499,1.2643,1.2768,1.2914,1.295,1.2958,1.2953,1.2469,1.2423,1.2016,1.1878,1.3021,1.302,1.3019,1.3018,0,1.1176,1.1323,1.1371,1.142,1.1588,1.1633,1.1725,1.1897,1.1957,1.2145,1.2179,1.2406,1.2489,1.2615,1.2772,1.275,1.2946,1.2921,1.2919,1.2916,1.244,1.239,1.2024,1.3016,1.3016,1.3016,1.3015,0,1.1294,1.1369,1.1446,1.1578,1.1606,1.167,1.1809,1.1912,1.2084,1.2149,1.2282,1.2357,1.2554,1.2524,1.275,1.2692,1.2734,1.2791,1.2795,1.2708,1.2653,1.2267,1.2267,1.1835,1.2823,1.2821,1.282,0,1.1309,1.1405,1.1487,1.1577,1.1628,1.174,1.1844,1.1966,1.2049,1.2131,1.2273,1.2368,1.2432,1.2473,1.256,1.2656,1.272,1.265,1.2679,1.2681,1.2632,1.2741,1.2195,1.2261,1.2797,1.2799,1.2801,0,1.1306,1.1449,1.1454,1.1498,1.1635,1.1675,1.1807,1.1922,1.1983,1.2083,1.216,1.2357,1.2372,1.2434,1.2502,1.2566,1.2683,1.2525,1.2524,1.2585,1.2771,1.2716,1.2727,1.2647,1.265,1.2652,1.2783,0,1.138,1.1432,1.1454,1.1551,1.161,1.1661,1.1771,1.1825,1.1871,1.1939,1.2068,1.2149,1.2241,1.231,1.2343,1.2485,1.2456,1.2419,1.2378,1.2452,1.2497,1.2512,1.2305,1.2303,1.2301,1.23,0,0,1.1345,1.1402,1.1449,1.1503,1.1559,1.1621,1.1674,1.1741,1.1822,1.1864,1.1854,1.202,1.2083,1.2253,1.2307,1.2306,1.2307,1.2304,1.2405,1.2416,1.2427,1.2475,1.2491,1.2297,1.2296,1.2295,1.2295,0,1.1364,1.14,1.1431,1.1486,1.1571,1.1625,1.1637,1.1713,1.1759,1.1819,1.1882,1.1965,1.2027,1.2134,1.219,1.2269,1.2275,1.2288,1.2346,1.2388,1.2402,1.2415,1.2465,1.2481,1.229,1.2291,1.2291,0,1.1361,1.1418,1.144,1.152,1.1568,1.1632,1.1647,1.1703,1.1772,1.1776,1.1851,1.1898,1.1965,1.206,1.2096,1.2069,1.2218,1.2169,1.2178,1.2174,1.2214,1.223,1.2245,1.2061,1.2061,1.2061,0,0,1.1371,1.1407,1.1495,1.1532,1.1558,1.1627,1.1659,1.1705,1.1756,1.1772,1.1813,1.1865,1.1947,1.1976,1.2028,1.2077,1.2077,1.2145,1.2156,1.2165,1.2168,1.2209,1.2224,1.2059,1.2059,1.2059,0,0,1.1383,1.1479,1.1507,1.1552,1.1613,1.1696,1.1718,1.1747,1.178,1.1789,1.1836,1.185,1.1933,1.1927,1.1903,1.2057,1.2006,1.201,1.2085,1.2098,1.2108,1.2108,1.1947,0,0,0,0,0,1.1451,1.1466,1.149,1.1511,1.1612,1.1679,1.1691,1.1757,1.1767,1.1775,1.1814,1.1843,1.1942,1.1921,1.1929,1.2023,1.2042,1.2045,1.2048,1.2155,1.2169,1.2181,0,0,0,0,0,0,1.1459,1.1481,1.1491,1.1574,1.1599,1.1677,1.1716,1.1732,1.1769,1.1776,1.1833,1.1844,1.1885,1.192,1.1926,1.2017,1.1945,1.2043,1.2045,1.2048,1.216,1.2171,1.2181,0,0,0,0,0,1.1467,1.1485,1.1632,1.1574,1.1595,1.1691,1.1716,1.173,1.1746,1.1825,1.1837,1.18,1.1883,1.1892,1.1924,1.2015,1.1941,1.1943,1.2045,1.2047,1.2049,1.2165,0,0,0,0,0,0,1.1472,1.1476,1.1638,1.1647,1.1587,1.1688,1.1704,1.1728,1.1792,1.1807,1.1795,1.18,1.1881,1.1889,1.1896,1.2016,1.1938,1.194,1.1941,1.2046,1.2048,1.2049,0,0,0,0,0,0,1.1468,1.1482,1.1642,1.1655,1.1666,1.1684,1.17,1.1719,1.1791,1.1756,1.1764,1.1797,1.1878,1.1886,1.1892,1.1918,1.1935,1.1937,1.1939,1.194,1.2048,1.2049,0,0,0,0,0,0,1.1475,1.1488,1.1652,1.166,1.167,1.1771,1.1701,1.1798,1.1815,1.175,1.1819,1.1821,1.1875,1.1881,1.1889,1.1912,1.1917,1.1935,1.1936,1.1938,1.1938,0,0,0,0,0,0,0,1.1481,1.1382,1.1596,1.1665,1.1673,1.1738,1.1739,1.174,1.1815,1.1817,1.1819,1.1821,1.1922,1.1925,1.1927,1.1907,0,0,1.1935,1.1936,0,0,0,0,0,0,0,0,1.1378,1.1381,1.1597,1.16,1.1603,1.1738,1.1739,1.174,1.1816,1.1817,1.1819,1.182,1.1923,1.1925,1.1927,0,0,0,0,0,0,0,0,0,0,0,0,0,0,0,1.1597,1.16,0,1.1738,1.1739,1.174,1.1816,1.1817,1.1818,1.1819,1.1923,1.1925,1.1927,0,0,0,0,0,0,0,0,0,0,0,0,0,0,0,0,0,0,0,0,0,0,0,0,0,0,0,0,0,0,0,0,0,0,0,0,0,0,0,0,0,0,0,0,0,0,0,0,0,0,0,0,0,0,0,0,0,0,0,0,0,0,0,0,0,0,0,0,0]}],[{"header":{"parameterUnit":"kt","parameterCategory":2,"dx":1,"dy":1,"la1":30.253999710083008,"la2":30.299108505249023,"lo1":-89.0895004272461,"lo2":-89.04439544677734,"nx":28,"ny":28,"refTime":"2022-10-11T21:00:00:Z","depth":"0","parameterNumber":3,"parameterNumberName":"V-component_of_CURRENTS"},"data":[-0.0792,-0.0592,-0.0499,0.007,0.0295,0.0751,0.1012,0.1508,0.1985,0.2926,0.3527,0.3821,0.3174,0.0584,-0.1333,-0.1826,-0.2528,-0.256,-0.2976,-0.2596,-0.2576,-0.2557,-0.2665,-0.2769,-0.2771,-0.3705,-0.3715,-0.3723,-0.0923,-0.0837,-0.07,-0.0451,-0.0143,-0.0186,0.0118,0.0466,0.11,0.1647,0.2163,0.2515,0.1951,0.1069,-0.0162,-0.0992,-0.1443,-0.1543,-0.1935,-0.2049,-0.1227,-0.1267,-0.1076,-0.1076,-0.1075,-0.1075,-0.1074,-0.1074,-0.1145,-0.1074,-0.0978,-0.0817,-0.0696,-0.0462,-0.0239,-0.0028,0.0351,0.0923,0.0904,0.1497,0.1084,0.0722,0.0185,-0.0747,-0.0834,-0.1039,-0.1287,-0.1459,-0.1641,-0.0675,-0.0387,-0.0389,-0.039,-0.0392,-0.0393,0,-0.1279,-0.1272,-0.1215,-0.1084,-0.0994,-0.0885,-0.0761,-0.0621,-0.0512,-0.0251,0.0144,0.0345,0.0235,0.0224,-0.0099,-0.035,-0.1236,-0.0857,-0.1372,-0.1624,-0.1804,-0.197,-0.1168,-0.0897,-0.0902,-0.0905,-0.0908,-0.091,-0.1438,-0.139,-0.1355,-0.1289,-0.1272,-0.1204,-0.1123,-0.1121,-0.0991,-0.0785,-0.0638,-0.0553,-0.0348,-0.0445,-0.0736,-0.0896,-0.1368,-0.0966,-0.1158,-0.1592,-0.1867,-0.2081,-0.2216,-0.0962,-0.0955,-0.095,-0.0945,0,-0.1518,-0.1529,-0.1461,-0.1449,-0.1438,-0.1379,-0.1312,-0.1225,-0.1212,-0.1023,-0.0993,-0.0998,-0.095,-0.1144,-0.1253,-0.1408,-0.1623,-0.1462,-0.1309,-0.1294,-0.1658,-0.1901,-0.2006,-0.215,-0.1314,-0.131,-0.1305,0,-0.1645,-0.1594,-0.161,-0.1571,-0.1497,-0.1533,-0.1445,-0.1458,-0.1411,-0.1276,-0.1422,-0.1296,-0.1534,-0.1521,-0.1685,-0.1663,-0.17,-0.1785,-0.1785,-0.1705,-0.1687,-0.2087,-0.2338,-0.1954,-0.1955,-0.1957,-0.1958,0,-0.1752,-0.1721,-0.1664,-0.1658,-0.1659,-0.1634,-0.1636,-0.1646,-0.1602,-0.1606,-0.1543,-0.1631,-0.1604,-0.1714,-0.1817,-0.1916,-0.1819,-0.1972,-0.187,-0.1859,-0.1755,-0.1737,-0.1984,-0.196,-0.196,-0.1961,-0.1961,0,-0.1857,-0.184,-0.1769,-0.1761,-0.1749,-0.1732,-0.1716,-0.1714,-0.1733,-0.1749,-0.1779,-0.1842,-0.1871,-0.199,-0.203,-0.2074,-0.2121,-0.2171,-0.2166,-0.2061,-0.2128,-0.1845,-0.1654,-0.2112,-0.2124,-0.2126,-0.2128,0,-0.1961,-0.1901,-0.1926,-0.1875,-0.1848,-0.1905,-0.1895,-0.192,-0.1952,-0.194,-0.2031,-0.2041,-0.2176,-0.2184,-0.222,-0.2285,-0.2261,-0.2341,-0.2304,-0.23,-0.2166,-0.2019,-0.1893,-0.17,-0.2153,-0.215,-0.2148,0,-0.2039,-0.2044,-0.2033,-0.2022,-0.205,-0.2043,-0.2045,-0.2058,-0.2038,-0.2107,-0.2077,-0.2194,-0.2235,-0.2281,-0.237,-0.2382,-0.23,-0.2444,-0.2446,-0.2346,-0.2214,-0.2071,-0.204,-0.2365,-0.2362,-0.2361,-0.2168,0,-0.2137,-0.2123,-0.2102,-0.2105,-0.2111,-0.2093,-0.2143,-0.2154,-0.2197,-0.2232,-0.2262,-0.2354,-0.2404,-0.2449,-0.2518,-0.2502,-0.2498,-0.2569,-0.26,-0.2541,-0.2465,-0.2449,-0.267,-0.2672,-0.2674,-0.2675,0,0,-0.2216,-0.2195,-0.2235,-0.2212,-0.2214,-0.2285,-0.2254,-0.2285,-0.2338,-0.2344,-0.2386,-0.248,-0.2556,-0.2587,-0.2591,-0.2633,-0.261,-0.2642,-0.2584,-0.2573,-0.2564,-0.2487,-0.247,-0.2678,-0.2679,-0.2679,-0.268,0,-0.225,-0.2273,-0.2242,-0.2256,-0.2281,-0.2314,-0.231,-0.235,-0.2374,-0.2396,-0.2472,-0.2515,-0.2595,-0.2646,-0.2685,-0.2655,-0.2681,-0.2686,-0.261,-0.2599,-0.2586,-0.2575,-0.2497,-0.248,-0.2684,-0.2684,-0.2684,0,-0.231,-0.2331,-0.2326,-0.2349,-0.2371,-0.2365,-0.2424,-0.2424,-0.2428,-0.2525,-0.2542,-0.2604,-0.2686,-0.2715,-0.2734,-0.2757,-0.2728,-0.278,-0.2772,-0.2752,-0.2742,-0.2728,-0.2716,-0.2874,-0.2874,-0.2874,0,0,-0.2334,-0.2327,-0.237,-0.2362,-0.2366,-0.2416,-0.2425,-0.2454,-0.2496,-0.2513,-0.2572,-0.2636,-0.2688,-0.2717,-0.2768,-0.279,-0.2782,-0.2798,-0.2789,-0.2782,-0.2757,-0.2746,-0.2732,-0.2875,-0.2875,-0.2875,0,0,-0.2351,-0.2387,-0.2416,-0.2402,-0.243,-0.2478,-0.2468,-0.2503,-0.2538,-0.2545,-0.2631,-0.2651,-0.2684,-0.2734,-0.2733,-0.2785,-0.2828,-0.2829,-0.2741,-0.2731,-0.2723,-0.268,-0.2806,0,0,0,0,0,-0.2408,-0.238,-0.2407,-0.2412,-0.2452,-0.2465,-0.2471,-0.2516,-0.2542,-0.2532,-0.2591,-0.2643,-0.2752,-0.2752,-0.2768,-0.2762,-0.2883,-0.2882,-0.288,-0.2773,-0.2762,-0.2752,0,0,0,0,0,0,-0.241,-0.2416,-0.2408,-0.2453,-0.2463,-0.2466,-0.2519,-0.2531,-0.2544,-0.255,-0.2629,-0.2646,-0.2704,-0.2749,-0.2762,-0.2755,-0.2802,-0.2882,-0.2881,-0.288,-0.277,-0.276,-0.2752,0,0,0,0,0,-0.2413,-0.2417,-0.2468,-0.2454,-0.2462,-0.2517,-0.252,-0.253,-0.254,-0.2625,-0.2641,-0.2572,-0.2701,-0.2718,-0.2757,-0.2747,-0.2794,-0.2798,-0.2882,-0.2881,-0.288,-0.2765,0,0,0,0,0,0,-0.2414,-0.2426,-0.2471,-0.2475,-0.2466,-0.2517,-0.2526,-0.2529,-0.2615,-0.2629,-0.2573,-0.2577,-0.2699,-0.2713,-0.2725,-0.274,-0.2787,-0.2791,-0.2794,-0.2881,-0.288,-0.2879,0,0,0,0,0,0,-0.2424,-0.2429,-0.2473,-0.2485,-0.2492,-0.2518,-0.2525,-0.2568,-0.2617,-0.2559,-0.2565,-0.2574,-0.27,-0.2709,-0.2719,-0.2782,-0.2781,-0.2786,-0.2789,-0.2791,-0.288,-0.288,0,0,0,0,0,0,-0.2427,-0.2432,-0.2484,-0.2489,-0.2495,-0.255,-0.2559,-0.2607,-0.2593,-0.2555,-0.2597,-0.2598,-0.2696,-0.2706,-0.2714,-0.2773,-0.278,-0.2782,-0.2785,-0.2787,-0.2788,0,0,0,0,0,0,0,-0.243,-0.2387,-0.2444,-0.2492,-0.2497,-0.2519,-0.252,-0.2521,-0.2593,-0.2595,-0.2596,-0.2598,-0.2756,-0.2761,-0.2766,-0.2765,0,0,-0.2781,-0.2783,0,0,0,0,0,0,0,0,-0.2386,-0.2387,-0.2444,-0.2446,-0.2447,-0.2519,-0.252,-0.2521,-0.2593,-0.2595,-0.2596,-0.2597,-0.2757,-0.2761,-0.2765,0,0,0,0,0,0,0,0,0,0,0,0,0,0,0,-0.2445,-0.2445,0,-0.2519,-0.252,-0.2521,-0.2593,-0.2595,-0.2596,-0.2597,-0.2758,-0.2762,-0.2765,0,0,0,0,0,0,0,0,0,0,0,0,0,0,0,0,0,0,0,0,0,0,0,0,0,0,0,0,0,0,0,0,0,0,0,0,0,0,0,0,0,0,0,0,0,0,0,0,0,0,0,0,0,0,0,0,0,0,0,0,0,0,0,0,0,0,0,0,0]}]],[[{"header":{"parameterUnit":"kt","parameterCategory":2,"dx":1,"dy":1,"la1":30.253999710083008,"la2":30.299108505249023,"lo1":-89.0895004272461,"lo2":-89.04439544677734,"nx":28,"ny":28,"refTime":"2022-10-11T21:00:00:Z","depth":"2","parameterNumber":2,"parameterNumberName":"U-component_of_CURRENTS"},"data":[0.4151,0.4223,0.4393,0.4658,0.4843,0.4749,0.4796,0.4677,0.4731,0.4723,0.4766,0.5059,0.5328,0.4705,0.4726,0.4551,0.471,0.4403,0.5959,0.5585,0.5634,0.584,0.5654,0,0,0,0,0,0.4183,0.4365,0.444,0.4578,0.4673,0.4813,0.5012,0.4982,0.5176,0.5493,0.5711,0.5347,0.5373,0.5504,0.5429,0.553,0.5312,0.5345,0.4967,0.5041,0.5102,0.4915,0.4409,0.4402,0.4395,0.4388,0,0,0.4266,0.4274,0.4333,0.4537,0.4604,0.4838,0.4893,0.5222,0.5495,0.587,0.6184,0.6305,0.6421,0.6459,0.6423,0.6463,0.6777,0.6482,0.6488,0.6505,0.6409,0.629,0.6291,0.6297,0.6303,0.6308,0.6313,0,0.4353,0.4395,0.4409,0.4507,0.4636,0.4819,0.5136,0.5261,0.5733,0.6018,0.642,0.6634,0.6998,0.6918,0.7232,0.7175,0.7166,0.7075,0.7779,0.6263,0.6124,0.6024,0.6025,0.6119,0.6125,0.613,0.6133,0.6135,0.4473,0.447,0.4532,0.4588,0.4704,0.4925,0.5064,0.5386,0.5624,0.6201,0.6371,0.6805,0.7045,0.7459,0.7535,0.7626,0.769,0.7218,0.678,0.7221,0.7128,0.7093,0.7061,0.6199,0.6191,0.6184,0.6179,0,0.4524,0.4563,0.457,0.4715,0.4801,0.4905,0.5286,0.5421,0.5777,0.6135,0.63,0.6698,0.7014,0.7273,0.7494,0.7469,0.7576,0.7578,0.7011,0.6892,0.7063,0.7033,0.7392,0.7395,0.7397,0.74,0.7402,0,0.457,0.4618,0.4737,0.474,0.4846,0.5058,0.5288,0.5461,0.5799,0.6033,0.6313,0.6542,0.682,0.7102,0.7113,0.7272,0.736,0.7058,0.7004,0.6511,0.6464,0.6825,0.6793,0.7087,0.7086,0.7085,0.7085,0,0.4616,0.4718,0.477,0.4802,0.4939,0.5112,0.5251,0.551,0.5673,0.6051,0.6241,0.6482,0.6683,0.679,0.6962,0.68,0.7228,0.6929,0.691,0.6902,0.6514,0.6465,0.7084,0.7084,0.7083,0.7083,0.7083,0,0.4711,0.4689,0.4776,0.4902,0.4932,0.5066,0.5288,0.5444,0.5725,0.5916,0.6159,0.6236,0.6479,0.6437,0.6644,0.6581,0.658,0.6577,0.6578,0.6635,0.6419,0.5959,0.615,0.6454,0.645,0.6446,0.6442,0,0.4695,0.4707,0.4782,0.4904,0.4902,0.5048,0.5189,0.5372,0.5561,0.5776,0.591,0.6037,0.601,0.6082,0.6232,0.6208,0.6336,0.62,0.6328,0.6332,0.6254,0.6555,0.6029,0.61,0.6389,0.6395,0.6399,0,0.4655,0.47,0.4726,0.4732,0.4825,0.4897,0.51,0.5241,0.5359,0.5602,0.5809,0.5852,0.5916,0.5938,0.5883,0.6041,0.6225,0.6033,0.6036,0.5987,0.6453,0.647,0.6506,0.6224,0.6233,0.6239,0.6357,0,0.4599,0.4643,0.4689,0.4667,0.476,0.4848,0.4938,0.5089,0.5241,0.534,0.5506,0.5513,0.5629,0.5627,0.5584,0.5769,0.5739,0.5679,0.5648,0.5865,0.5882,0.5916,0.5502,0.55,0.5499,0.5498,0,0,0.4513,0.4518,0.4505,0.4524,0.4579,0.4638,0.4718,0.4827,0.5002,0.5098,0.5153,0.5292,0.5258,0.5307,0.5413,0.5377,0.5441,0.5481,0.5768,0.5798,0.5826,0.5852,0.5885,0.5496,0.5496,0.5495,0.5495,0,0.4428,0.4427,0.4446,0.4477,0.4551,0.4586,0.4636,0.4772,0.4891,0.5046,0.4989,0.5053,0.5156,0.5152,0.5152,0.5341,0.5316,0.5389,0.5649,0.5751,0.5782,0.581,0.5842,0.5873,0.5492,0.5492,0.5492,0,0.4279,0.4261,0.4289,0.4324,0.4396,0.4453,0.4485,0.4642,0.4749,0.4689,0.4886,0.4851,0.4851,0.495,0.5004,0.5018,0.527,0.5166,0.5178,0.5263,0.5366,0.5404,0.5437,0.499,0.4987,0.4985,0,0,0.4183,0.4192,0.4214,0.4309,0.4326,0.4426,0.4502,0.4583,0.4664,0.4723,0.4767,0.4836,0.4819,0.4888,0.4876,0.4998,0.5032,0.5096,0.512,0.5139,0.5231,0.5341,0.5379,0.4976,0.4975,0.4975,0,0,0.4186,0.4165,0.4158,0.4234,0.431,0.4417,0.4516,0.4575,0.4678,0.4723,0.4685,0.4685,0.4745,0.4794,0.4674,0.4914,0.4835,0.4855,0.4848,0.4877,0.4901,0.4993,0.4586,0,0,0,0,0,0.408,0.414,0.413,0.4147,0.4272,0.4385,0.4414,0.4526,0.4582,0.4658,0.4699,0.4644,0.4773,0.4661,0.4653,0.4741,0.4853,0.4875,0.4895,0.4905,0.4937,0.4964,0,0,0,0,0,0,0.4086,0.4102,0.4131,0.4219,0.425,0.4383,0.4408,0.4441,0.4578,0.4596,0.4643,0.464,0.4603,0.466,0.4653,0.474,0.4588,0.4861,0.488,0.4896,0.4916,0.4943,0.4965,0,0,0,0,0,0.4092,0.4105,0.4265,0.4224,0.425,0.4398,0.441,0.4438,0.4576,0.4541,0.4552,0.4667,0.4602,0.4598,0.4656,0.4746,0.4592,0.459,0.4873,0.4888,0.4901,0.4929,0,0,0,0,0,0,0.4097,0.415,0.4275,0.4289,0.4233,0.4399,0.4423,0.4434,0.4514,0.4529,0.4549,0.4558,0.46,0.4598,0.4595,0.4755,0.4595,0.4593,0.4592,0.4884,0.4896,0.4906,0,0,0,0,0,0,0.4144,0.416,0.4283,0.4287,0.4304,0.4398,0.442,0.4389,0.4507,0.4517,0.453,0.4551,0.4548,0.4597,0.4595,0.4548,0.4598,0.4596,0.4594,0.4593,0.4894,0.4903,0,0,0,0,0,0,0.4154,0.4169,0.4285,0.4297,0.4312,0.4491,0.4369,0.4459,0.4616,0.4507,0.4621,0.4623,0.4541,0.4545,0.4595,0.4549,0.4548,0.4598,0.4596,0.4595,0.4594,0,0,0,0,0,0,0,0.4163,0.4022,0.4182,0.4306,0.4319,0.4425,0.443,0.4435,0.4616,0.4618,0.4621,0.4622,0.461,0.4608,0.4605,0.4549,0,0,0.4598,0.4597,0,0,0,0,0,0,0,0,0.402,0.4021,0.4182,0.4185,0.4188,0.4426,0.443,0.4434,0.4617,0.4618,0.462,0.4622,0.4609,0.4607,0.4605,0,0,0,0,0,0,0,0,0,0,0,0,0,0,0,0.4183,0.4185,0,0.4427,0.443,0.4433,0.4617,0.4618,0.462,0.4621,0.4609,0.4607,0.4606,0,0,0,0,0,0,0,0,0,0,0,0,0,0,0,0,0,0,0,0,0,0,0,0,0,0,0,0,0,0,0,0,0,0,0,0,0,0,0,0,0,0,0,0,0,0,0,0,0,0,0,0,0,0,0,0,0,0,0,0,0,0,0,0,0,0,0,0,0]}],[{"header":{"parameterUnit":"kt","parameterCategory":2,"dx":1,"dy":1,"la1":30.253999710083008,"la2":30.299108505249023,"lo1":-89.0895004272461,"lo2":-89.04439544677734,"nx":28,"ny":28,"refTime":"2022-10-11T21:00:00:Z","depth":"2","parameterNumber":3,"parameterNumberName":"V-component_of_CURRENTS"},"data":[0.2668,0.2833,0.2844,0.3129,0.3362,0.3713,0.3935,0.4078,0.4072,0.3934,0.366,0.3367,0.2415,0.1486,0.0597,-0.0074,-0.0125,-0.0194,0.0024,0.0292,0.032,-0.0251,-0.0162,0,0,0,0,0,0.2614,0.2678,0.289,0.3144,0.3395,0.3518,0.3881,0.4029,0.423,0.4162,0.405,0.32,0.2356,0.1476,0.0224,-0.0451,-0.0471,-0.0633,-0.0511,-0.0488,-0.0468,-0.0431,-0.0687,-0.0689,-0.0691,-0.0693,0,0,0.2514,0.2631,0.2797,0.2978,0.3241,0.3499,0.3745,0.3923,0.4125,0.4168,0.4079,0.3751,0.3001,0.1527,0.0756,-0.0041,-0.0068,-0.0349,-0.0335,-0.0322,-0.0282,-0.0234,-0.0495,-0.0495,-0.0495,-0.0495,-0.0495,0,0.2407,0.2467,0.2606,0.286,0.3073,0.3294,0.3527,0.3712,0.3833,0.3902,0.3913,0.3757,0.2943,0.2107,0.1116,0.056,0.0256,0.0042,0.0236,-0.0001,0.0056,-0.0056,-0.004,-0.0159,-0.0157,-0.0155,-0.0154,-0.0154,0.2249,0.2356,0.2553,0.2682,0.2774,0.3013,0.3183,0.3296,0.3423,0.3514,0.3588,0.3313,0.3074,0.2217,0.1402,0.0573,0.05,0.0123,-0.0084,0.0097,-0.0023,-0.0009,0.0003,-0.0133,-0.0135,-0.0138,-0.0139,0,0.2167,0.221,0.238,0.2523,0.2598,0.2759,0.2977,0.3118,0.3167,0.3323,0.3349,0.317,0.2746,0.2221,0.1588,0.116,0.0613,0.0384,0.0479,0.0357,0.0022,0.0029,-0.0106,-0.0111,-0.0115,-0.0118,-0.0121,0,0.2034,0.2139,0.2227,0.2309,0.2518,0.2515,0.2735,0.2753,0.2833,0.2944,0.2762,0.2777,0.228,0.2,0.1486,0.0923,0.0998,0.0361,0.0225,0.0251,0.0241,0.0283,0.0273,0.0384,0.0385,0.0387,0.0388,0,0.1882,0.1984,0.2127,0.2148,0.2217,0.2314,0.237,0.2371,0.2442,0.2466,0.2501,0.2292,0.2227,0.1816,0.1317,0.1227,0.0878,0.0669,0.0281,0.0269,0.0154,0.0132,0.039,0.039,0.0391,0.0391,0.0392,0,0.1736,0.1802,0.1944,0.2037,0.206,0.2114,0.2199,0.2221,0.2197,0.2157,0.2089,0.1922,0.1795,0.1558,0.1161,0.1216,0.0895,0.0643,0.0627,0.0445,0.0237,0.0125,0.0165,0.036,0.0361,0.0362,0.0363,0,0.1615,0.1725,0.1694,0.18,0.1854,0.1775,0.1816,0.1781,0.1716,0.1733,0.1552,0.1509,0.1264,0.1235,0.1094,0.0817,0.0701,0.0772,0.0354,0.0343,0.0292,0.0355,0.0364,0.0186,0.0374,0.0373,0.0372,0,0.1499,0.1512,0.152,0.157,0.1509,0.1511,0.1525,0.1512,0.1562,0.1388,0.1453,0.1218,0.1123,0.1031,0.0861,0.0749,0.0705,0.0575,0.0562,0.0542,0.0475,0.0379,0.0361,0.0579,0.0579,0.058,0.0382,0,0.139,0.1413,0.1434,0.1427,0.1401,0.1411,0.132,0.1291,0.1207,0.112,0.1059,0.0839,0.0727,0.0643,0.0515,0.051,0.0421,0.0303,0.0233,0.0313,0.0204,0.0199,0.0194,0.0189,0.0185,0.0181,0,0,0.1288,0.1319,0.123,0.1253,0.1248,0.11,0.114,0.1055,0.09,0.0893,0.0783,0.0564,0.0411,0.0369,0.036,0.0258,0.0169,0.0287,0.0258,0.0268,0.0276,0.0181,0.018,0.0174,0.0172,0.0171,0.0169,0,0.1246,0.1202,0.1237,0.1191,0.112,0.1038,0.1048,0.091,0.0843,0.0771,0.0607,0.0509,0.0333,0.0227,0.0151,0.0203,0.0071,0.0149,0.0338,0.0224,0.024,0.0253,0.0164,0.0166,0.0159,0.016,0.016,0,0.1168,0.1132,0.1127,0.106,0.0979,0.0964,0.0826,0.0772,0.0757,0.0533,0.0466,0.0326,0.015,0.0083,0.0046,-0.0001,-0.0029,-0.0026,-0.0009,0.0044,-0.0078,-0.0061,-0.0045,-0.0237,-0.0237,-0.0237,0,0,0.1141,0.1144,0.1043,0.104,0.1016,0.0871,0.0819,0.0726,0.0599,0.0532,0.0401,0.0256,0.015,0.0093,-0.0027,-0.0062,-0.0154,-0.0059,-0.0041,-0.0025,0.0037,-0.008,-0.0064,-0.0236,-0.0236,-0.0236,0,0,0.1101,0.1024,0.0979,0.0976,0.0893,0.0726,0.0698,0.0614,0.0476,0.0455,0.0279,0.0237,0.0171,0.0057,0.0077,-0.0031,-0.0129,-0.0135,0.0091,0.0112,0.0129,0.0236,-0.0052,0,0,0,0,0,0.1025,0.1053,0.1015,0.1001,0.0852,0.0769,0.0737,0.058,0.0524,0.0499,0.0351,0.0273,0.0004,0.0019,-0.0008,0.0043,-0.0232,-0.0233,-0.0234,0.0044,0.0068,0.0087,0,0,0,0,0,0,0.1019,0.1005,0.1013,0.0866,0.0831,0.0765,0.063,0.0585,0.052,0.0497,0.0299,0.0266,0.0133,0.0025,0.0003,0.0054,-0.0045,-0.0233,-0.0233,-0.0234,0.0052,0.0071,0.0088,0,0,0,0,0,0.1014,0.1002,0.0819,0.086,0.0829,0.0641,0.0627,0.0588,0.0514,0.0338,0.0298,0.0406,0.0138,0.0108,0.0011,0.0068,-0.003,-0.0038,-0.0233,-0.0233,-0.0234,0.0062,0,0,0,0,0,0,0.1009,0.0923,0.0807,0.0789,0.0844,0.0637,0.0604,0.0592,0.0353,0.0318,0.0438,0.0423,0.0142,0.0118,0.0096,0.0081,-0.0018,-0.0026,-0.0031,-0.0233,-0.0234,-0.0234,0,0,0,0,0,0,0.0929,0.091,0.0797,0.0787,0.0765,0.0635,0.0607,0.0536,0.0354,0.0462,0.0444,0.0435,0.0198,0.0125,0.0107,-0.0,-0.0009,-0.0017,-0.0022,-0.0025,-0.0234,-0.0234,0,0,0,0,0,0,0.0916,0.0899,0.0788,0.0772,0.0753,0.0528,0.0566,0.0425,0.0335,0.0475,0.0327,0.0323,0.021,0.0187,0.0116,0.0017,0.0004,-0.0009,-0.0014,-0.0018,-0.0021,0,0,0,0,0,0,0,0.0906,0.1077,0.0933,0.0761,0.0743,0.063,0.0623,0.0616,0.0335,0.0331,0.0328,0.0325,0.0035,0.0027,0.0018,0.0031,0,0,-0.0008,-0.0012,0,0,0,0,0,0,0,0,0.1079,0.1078,0.0932,0.093,0.0927,0.0628,0.0623,0.0617,0.0334,0.0331,0.0329,0.0326,0.0033,0.0026,0.0019,0,0,0,0,0,0,0,0,0,0,0,0,0,0,0,0.0932,0.093,0,0.0628,0.0623,0.0618,0.0334,0.0331,0.0329,0.0327,0.0031,0.0026,0.002,0,0,0,0,0,0,0,0,0,0,0,0,0,0,0,0,0,0,0,0,0,0,0,0,0,0,0,0,0,0,0,0,0,0,0,0,0,0,0,0,0,0,0,0,0,0,0,0,0,0,0,0,0,0,0,0,0,0,0,0,0,0,0,0,0,0,0,0,0]}]],[[{"header":{"parameterUnit":"kt","parameterCategory":2,"dx":1,"dy":1,"la1":30.253999710083008,"la2":30.299108505249023,"lo1":-89.0895004272461,"lo2":-89.04439544677734,"nx":28,"ny":28,"refTime":"2022-10-11T21:00:00:Z","depth":"4","parameterNumber":2,"parameterNumberName":"U-component_of_CURRENTS"},"data":[0.1139,0.1201,0.1242,0.1229,0.128,0.1414,0.1615,0.1901,0.2009,0.2441,0.2576,0.291,0.3151,0.3293,0.3424,0.3482,0.3387,0.3974,0.3967,0.3928,0.3942,0.3954,0.3794,0,0,0,0,0,0.1222,0.1231,0.1319,0.1438,0.1569,0.1683,0.1978,0.2173,0.2582,0.269,0.2919,0.3121,0.3346,0.3501,0.3507,0.3755,0.386,0.3741,0.3687,0.3937,0.3952,0.3791,0,0,0,0,0,0,0.1323,0.1358,0.1502,0.1633,0.1788,0.1894,0.2067,0.2299,0.2519,0.3058,0.3105,0.3459,0.3748,0.3828,0.389,0.3941,0.3883,0.3734,0.3759,0.3775,0.3616,0.3441,0.3458,0,0,0,0,0,0.142,0.1533,0.1645,0.1806,0.1966,0.2118,0.2356,0.2481,0.2866,0.3173,0.3416,0.3579,0.3808,0.3912,0.404,0.4042,0.4133,0.4127,0.4132,0.3988,0.3885,0.3859,0.3846,0.401,0.4012,0.4013,0.4014,0,0.153,0.1595,0.187,0.1954,0.2078,0.2294,0.2422,0.2757,0.2921,0.3367,0.3458,0.3797,0.3956,0.4026,0.4158,0.4215,0.4184,0.4168,0.4014,0.3908,0.3881,0.3864,0.3846,0.4026,0.4025,0.4024,0.4023,0,0.1585,0.1732,0.188,0.2139,0.2225,0.2354,0.2657,0.2801,0.3102,0.335,0.3465,0.377,0.3953,0.4078,0.4244,0.4131,0.4167,0.4161,0.4204,0.4189,0.3881,0.3859,0.4046,0.4042,0.4038,0.4035,0.4032,0,0.1701,0.1802,0.2027,0.21,0.2258,0.2441,0.2643,0.2824,0.3097,0.3267,0.349,0.3642,0.3821,0.3957,0.3967,0.4001,0.4147,0.3944,0.3936,0.398,0.3958,0.394,0.3911,0.418,0.4179,0.4178,0.4177,0,0.1725,0.1921,0.2032,0.2103,0.2325,0.2442,0.2582,0.2814,0.2952,0.3244,0.3397,0.3566,0.3718,0.3804,0.3877,0.3828,0.4063,0.3996,0.3896,0.3882,0.3922,0.3895,0.4175,0.4175,0.4175,0.4174,0.4174,0,0.1793,0.1901,0.2034,0.2229,0.2284,0.239,0.2637,0.2752,0.2983,0.3101,0.3278,0.3366,0.3535,0.3499,0.3688,0.3621,0.3691,0.3726,0.3734,0.3526,0.3432,0.3527,0.3755,0.3751,0.3748,0.3745,0.3742,0,0.1774,0.192,0.2009,0.2157,0.2242,0.2378,0.2492,0.2633,0.2769,0.2937,0.3039,0.3199,0.3166,0.3275,0.3363,0.3434,0.3544,0.3421,0.3559,0.3562,0.3388,0.3562,0.353,0.3694,0.37,0.3704,0.3708,0,0.1751,0.1931,0.1958,0.204,0.2198,0.2264,0.24,0.2534,0.2655,0.2763,0.2914,0.304,0.3101,0.3142,0.3178,0.3271,0.3465,0.3257,0.3259,0.3313,0.3703,0.3523,0.3534,0.3502,0.3508,0.3512,0.3675,0,0.181,0.1892,0.1939,0.2071,0.2144,0.222,0.2318,0.2416,0.2498,0.2554,0.2727,0.2799,0.2919,0.2947,0.2955,0.3128,0.3105,0.3082,0.3022,0.316,0.3205,0.3232,0.2874,0.2871,0.2868,0.2866,0,0,0.1764,0.1843,0.1915,0.1998,0.2061,0.2132,0.2201,0.2259,0.2362,0.2429,0.2442,0.2632,0.2668,0.281,0.2867,0.2869,0.2916,0.2856,0.3074,0.3097,0.3119,0.3171,0.3199,0.2862,0.2861,0.286,0.2859,0,0.1771,0.1847,0.1898,0.1964,0.2065,0.2099,0.2136,0.2211,0.2265,0.2375,0.2408,0.2519,0.2604,0.266,0.2693,0.2828,0.2818,0.284,0.2936,0.3049,0.3076,0.3099,0.3156,0.3183,0.2853,0.2854,0.2854,0,0.1763,0.1826,0.1849,0.194,0.199,0.2054,0.2054,0.2127,0.2187,0.2198,0.232,0.2373,0.2412,0.2521,0.2573,0.2535,0.2732,0.2646,0.2659,0.2654,0.2767,0.2797,0.2824,0.248,0.2479,0.2478,0,0,0.1775,0.1831,0.1892,0.1941,0.1981,0.2027,0.206,0.2095,0.2157,0.2194,0.2247,0.2308,0.2375,0.2425,0.2467,0.2555,0.2567,0.2604,0.2622,0.2636,0.2641,0.2756,0.2785,0.2475,0.2475,0.2475,0,0,0.1763,0.1842,0.1872,0.1929,0.1981,0.201,0.2056,0.208,0.2157,0.219,0.2212,0.223,0.2353,0.2344,0.2301,0.2453,0.2375,0.2385,0.2477,0.2498,0.2515,0.2512,0.2254,0,0,0,0,0,0.1793,0.1829,0.1856,0.1873,0.1946,0.1994,0.2002,0.2051,0.2076,0.2111,0.2184,0.2162,0.2333,0.2295,0.2304,0.2378,0.2433,0.244,0.2447,0.2585,0.2608,0.2627,0,0,0,0,0,0,0.18,0.1818,0.1855,0.1885,0.1903,0.1992,0.1995,0.2007,0.2074,0.2083,0.2149,0.2161,0.2167,0.2289,0.2297,0.2368,0.2251,0.2436,0.2442,0.2448,0.2593,0.2612,0.2628,0,0,0,0,0,0.1805,0.182,0.1937,0.1884,0.1899,0.1966,0.1996,0.2007,0.2067,0.2097,0.2111,0.2114,0.2164,0.2178,0.2294,0.2366,0.2245,0.2248,0.244,0.2445,0.2449,0.2602,0,0,0,0,0,0,0.1809,0.181,0.194,0.1945,0.1903,0.1964,0.1978,0.2006,0.2078,0.2093,0.2056,0.2062,0.2162,0.2173,0.2183,0.2367,0.224,0.2243,0.2245,0.2444,0.2447,0.2451,0,0,0,0,0,0,0.1803,0.1815,0.1942,0.1964,0.1971,0.1962,0.1974,0.2002,0.208,0.2033,0.204,0.2058,0.2169,0.2169,0.2177,0.2216,0.2236,0.2239,0.2241,0.2243,0.2447,0.245,0,0,0,0,0,0,0.1808,0.1818,0.1962,0.1968,0.1975,0.2032,0.1988,0.2071,0.2071,0.2029,0.2077,0.2079,0.2165,0.2173,0.2173,0.2208,0.2214,0.2236,0.2238,0.224,0.2241,0,0,0,0,0,0,0,0.1812,0.1744,0.1917,0.1971,0.1978,0.1996,0.1997,0.1998,0.2071,0.2074,0.2076,0.2078,0.2218,0.2221,0.2225,0.2201,0,0,0.2236,0.2237,0,0,0,0,0,0,0,0,0.1741,0.1744,0.1917,0.1919,0.192,0.1997,0.1997,0.1997,0.2072,0.2074,0.2076,0.2077,0.2219,0.2222,0.2224,0,0,0,0,0,0,0,0,0,0,0,0,0,0,0,0.1917,0.1919,0,0.1997,0.1997,0.1997,0.2072,0.2074,0.2075,0.2077,0.222,0.2222,0.2224,0,0,0,0,0,0,0,0,0,0,0,0,0,0,0,0,0,0,0,0,0,0,0,0,0,0,0,0,0,0,0,0,0,0,0,0,0,0,0,0,0,0,0,0,0,0,0,0,0,0,0,0,0,0,0,0,0,0,0,0,0,0,0,0,0,0,0,0,0]}],[{"header":{"parameterUnit":"kt","parameterCategory":2,"dx":1,"dy":1,"la1":30.253999710083008,"la2":30.299108505249023,"lo1":-89.0895004272461,"lo2":-89.04439544677734,"nx":28,"ny":28,"refTime":"2022-10-11T21:00:00:Z","depth":"4","parameterNumber":3,"parameterNumberName":"V-component_of_CURRENTS"},"data":[0.1288,0.1437,0.1557,0.1848,0.2007,0.2265,0.2395,0.24,0.2346,0.2277,0.1941,0.1757,0.1126,0.1445,0.0496,0.0363,0.0165,-0.0498,-0.0507,-0.0792,-0.0789,-0.0785,-0.064,0,0,0,0,0,0.1275,0.1394,0.1557,0.1778,0.1986,0.2132,0.2302,0.2338,0.2356,0.2288,0.2208,0.1844,0.1203,0.0892,0.0498,0.0292,-0.0261,-0.0187,-0.0417,-0.079,-0.0786,-0.0646,0,0,0,0,0,0,0.1267,0.1347,0.15,0.1683,0.1889,0.2094,0.2155,0.2222,0.2277,0.2165,0.2103,0.1662,0.1384,0.0752,0.0336,-0.0068,-0.0171,-0.0294,-0.0317,-0.0318,-0.0135,0.0043,-0.0029,0,0,0,0,0,0.1243,0.1324,0.1407,0.1614,0.1769,0.1931,0.2069,0.2129,0.2134,0.2091,0.1933,0.1585,0.1186,0.0641,0.0201,-0.0208,-0.0566,-0.0675,-0.0676,-0.0658,-0.0572,-0.0602,-0.0581,-0.0771,-0.077,-0.077,-0.077,0,0.1218,0.1278,0.1439,0.1527,0.1586,0.1713,0.1806,0.1828,0.1884,0.1784,0.1785,0.1479,0.1245,0.0606,0.015,-0.0421,-0.0484,-0.0663,-0.0642,-0.0562,-0.0599,-0.0578,-0.0558,-0.0767,-0.0767,-0.0767,-0.0767,0,0.1208,0.1248,0.1343,0.1419,0.1466,0.154,0.1648,0.1695,0.1639,0.165,0.1627,0.134,0.0994,0.0585,0.0117,-0.0119,-0.0468,-0.0567,-0.0393,-0.0437,-0.0563,-0.0544,-0.0761,-0.0762,-0.0763,-0.0764,-0.0765,0,0.1169,0.1224,0.1292,0.1333,0.1424,0.1391,0.1471,0.1429,0.139,0.1402,0.1189,0.1126,0.0714,0.0454,0.0165,-0.0178,-0.0216,-0.0397,-0.0456,-0.034,-0.0324,-0.0391,-0.0378,-0.0485,-0.0484,-0.0482,-0.0481,0,0.1131,0.1167,0.1231,0.1238,0.1243,0.1277,0.1284,0.1212,0.122,0.1098,0.1085,0.0825,0.073,0.0451,0.0151,0.0157,-0.0218,-0.0253,-0.0392,-0.0391,-0.0377,-0.0367,-0.0479,-0.0478,-0.0478,-0.0477,-0.0477,0,0.1068,0.1095,0.115,0.1174,0.1177,0.1195,0.1181,0.1153,0.1036,0.0988,0.087,0.0754,0.0568,0.051,0.0168,0.0248,0.0081,-0.0066,-0.0078,-0.0092,-0.0126,-0.0151,-0.0221,-0.0218,-0.0215,-0.0212,-0.021,0,0.1037,0.107,0.1047,0.1085,0.1102,0.1049,0.1026,0.0968,0.0913,0.0853,0.0696,0.0628,0.0534,0.0502,0.0365,0.0177,0.007,0.0185,-0.0104,-0.0112,-0.0077,-0.0142,0.0048,-0.0171,-0.0176,-0.018,-0.0182,0,0.1,0.1001,0.1007,0.1027,0.0975,0.097,0.0935,0.0884,0.0878,0.0771,0.0729,0.0574,0.0514,0.0449,0.0355,0.0245,0.0122,0.0195,0.0187,0.0124,-0.0123,-0.0099,-0.0119,0.0065,0.0061,0.0059,-0.0156,0,0.0957,0.0974,0.0978,0.0958,0.0937,0.0931,0.0869,0.0843,0.0809,0.0751,0.0654,0.0533,0.0438,0.0388,0.0336,0.0228,0.0205,0.0168,0.0151,0.0128,0.0038,0.0018,0.0244,0.0243,0.0242,0.0241,0,0,0.0928,0.0942,0.0905,0.0898,0.0889,0.0828,0.0832,0.0785,0.0709,0.0682,0.0668,0.0497,0.0418,0.031,0.0299,0.0256,0.0191,0.0271,0.0151,0.0141,0.0132,0.0046,0.0027,0.0239,0.0239,0.0239,0.0238,0,0.0903,0.0901,0.0912,0.0884,0.0842,0.0804,0.0806,0.0745,0.0717,0.0666,0.0593,0.0514,0.0419,0.0334,0.0281,0.0251,0.0178,0.0233,0.0268,0.0147,0.0139,0.0131,0.0045,0.0029,0.0236,0.0236,0.0236,0,0.0869,0.0848,0.0855,0.0821,0.079,0.0772,0.0732,0.0708,0.0688,0.0606,0.0567,0.0492,0.0395,0.0326,0.0293,0.0287,0.0164,0.022,0.0223,0.023,0.0103,0.0095,0.0087,0.0183,0.0184,0.0184,0,0,0.0845,0.0852,0.0802,0.081,0.0797,0.0743,0.0723,0.0693,0.0639,0.0618,0.0558,0.0486,0.0409,0.0374,0.0301,0.0244,0.0177,0.0218,0.022,0.0223,0.0231,0.0106,0.0098,0.0185,0.0185,0.0185,0,0,0.0826,0.0792,0.0783,0.0793,0.0751,0.0682,0.0678,0.0652,0.06,0.0601,0.0524,0.0503,0.0438,0.0389,0.0411,0.0297,0.0282,0.0275,0.0341,0.0343,0.0345,0.0374,0.0362,0,0,0,0,0,0.0779,0.0798,0.079,0.0786,0.0738,0.069,0.0679,0.0638,0.0637,0.063,0.057,0.0536,0.0378,0.0396,0.0376,0.0359,0.0197,0.0195,0.0193,0.0262,0.0265,0.0267,0,0,0,0,0,0,0.0777,0.0773,0.0789,0.0728,0.0716,0.069,0.0664,0.0652,0.0636,0.0633,0.0548,0.0532,0.0474,0.0402,0.0385,0.037,0.0368,0.0197,0.0195,0.0193,0.0263,0.0265,0.0267,0,0,0,0,0,0.0775,0.0772,0.0718,0.0726,0.0715,0.066,0.0665,0.0654,0.0643,0.0552,0.0538,0.0617,0.0475,0.0456,0.0392,0.038,0.0379,0.0373,0.0195,0.0194,0.0192,0.0264,0,0,0,0,0,0,0.0773,0.0749,0.0714,0.0707,0.0732,0.066,0.0652,0.0657,0.0562,0.0549,0.0616,0.0614,0.0475,0.0461,0.0447,0.0387,0.0389,0.0382,0.0378,0.0194,0.0193,0.0192,0,0,0,0,0,0,0.075,0.0745,0.071,0.0722,0.0716,0.066,0.0654,0.0588,0.056,0.063,0.0626,0.0616,0.0489,0.0464,0.0453,0.0351,0.0396,0.039,0.0386,0.0383,0.0193,0.0192,0,0,0,0,0,0,0.0746,0.0741,0.0723,0.0718,0.0713,0.0633,0.0599,0.0548,0.0589,0.0634,0.059,0.059,0.0492,0.048,0.0457,0.0361,0.0354,0.0396,0.0392,0.0389,0.0387,0,0,0,0,0,0,0,0.0742,0.08,0.0756,0.0716,0.0711,0.0645,0.0643,0.0641,0.0589,0.059,0.059,0.059,0.0431,0.0424,0.0417,0.0368,0,0,0.0396,0.0393,0,0,0,0,0,0,0,0,0.08,0.08,0.0756,0.0755,0.0754,0.0645,0.0643,0.0641,0.0589,0.059,0.059,0.059,0.0429,0.0423,0.0418,0,0,0,0,0,0,0,0,0,0,0,0,0,0,0,0.0756,0.0755,0,0.0644,0.0643,0.0642,0.0589,0.059,0.059,0.059,0.0427,0.0423,0.0418,0,0,0,0,0,0,0,0,0,0,0,0,0,0,0,0,0,0,0,0,0,0,0,0,0,0,0,0,0,0,0,0,0,0,0,0,0,0,0,0,0,0,0,0,0,0,0,0,0,0,0,0,0,0,0,0,0,0,0,0,0,0,0,0,0,0,0,0,0]}]]]